Home > Weather > Igloolik > Past weeks

Flag for Canada Past Weather in Igloolik, Nunavut, Canada — Yesterday and Last 2 Weeks

Now
43 °F

Mostly cloudy.


Feels Like: 37 °F
Forecast: 42 / 49 °F
Wind: 10 mph from Southwest

Location: Hall Beach

Current Time: Jul 31, 2016 at 3:34:12 AM

Latest Report: Jul 31, 2016 at 3:00 AM


Visibility: 9 mi

Pressure: 29.95 "Hg

Humidity: 87%

Dew Point: 39 °F

Location of IgloolikLocation

Past Weather in Igloolik — Graph

°F

Igloolik Temperature Yesterday

Maximum temperature yesterday: 43 °F (at 4:00 PM)
Minimum temperature yesterday: 37 °F (at 2:00 AM)
Average temperature yesterday: 40 °F

High & Low Weather Summary for the Past Weeks

 TemperatureHumidityPressure
High55 °F (Jul 19, 12:00 PM)100% (Jul 17, 10:00 PM)30.22 "Hg (Jul 17, 10:00 PM)
Low34 °F (Jul 21, 5:00 AM)51% (Jul 19, 4:00 PM)29.33 "Hg (Jul 18, 7:00 PM)
Average41 °F90%29.79 "Hg
* Reported Jul 16 2:00 AM — Jul 31 2:00 AM, Igloolik, Weather by CustomWeather, © 2016

Note: Actual official high and low records may vary slightly from our data, if they occured in-between our weather recording intervals... More about our weather records

Advertising

Igloolik Weather History for the Previous 24 Hours

Scroll right to see more
 ConditionsComfort  
Time TempWeatherWind HumidityBarometerVisibility
2:00 AM
Sun, Jul 31
43 °FOvercast.9 mph87%29.96 "Hg9 mi
1:00 AM41 °FPassing clouds.12 mph93%29.96 "Hg9 mi
12:01 AM43 °FMore clouds than sun.10 mph93%29.96 "Hg9 mi
11:00 PM
Sat, Jul 30
41 °FPartly sunny.9 mph93%29.96 "Hg9 mi
10:00 PM41 °FPassing clouds.9 mph87%29.97 "Hg9 mi
9:00 PM41 °FPassing clouds.9 mph93%29.97 "Hg9 mi
8:00 PM41 °FPartly sunny.9 mph87%29.97 "Hg15 mi
7:00 PM41 °FBroken clouds.13 mph87%29.97 "Hg15 mi
6:00 PM41 °FScattered clouds.13 mph87%29.97 "Hg15 mi
5:00 PM41 °FPartly sunny.15 mph87%29.98 "Hg15 mi
4:00 PM43 °FPartly sunny.13 mph87%29.97 "Hg15 mi
3:00 PM41 °FPartly sunny.12 mph87%29.98 "Hg15 mi
2:00 PM41 °FPartly sunny.14 mph87%29.98 "Hg15 mi
1:00 PM39 °FPartly sunny.12 mph93%29.99 "Hg15 mi
12:00 PM41 °FPartly sunny.9 mph87%29.99 "Hg15 mi
11:00 AM41 °FPartly sunny.13 mph87%30.00 "Hg15 mi
10:00 AM39 °FPartly sunny.8 mph93%30.00 "Hg15 mi
9:00 AM39 °FPartly sunny.9 mph93%30.00 "Hg15 mi
8:00 AM39 °FPartly sunny.12 mph93%30.00 "Hg15 mi
7:00 AM39 °FPartly sunny.12 mph93%30.01 "Hg9 mi
6:00 AM37 °FPartly sunny.12 mph93%30.01 "Hg9 mi
5:00 AM37 °FSunny.8 mph93%30.01 "Hg9 mi
4:00 AM37 °FPassing clouds.13 mph93%30.01 "Hg9 mi
3:00 AM37 °FPassing clouds.13 mph93%30.01 "Hg9 mi
Weather by CustomWeather, © 2016

See weather overviewHow to use our weather pages